Wetbulb
54.67 51.03 49.34 53.42 57.34 58.75 58.22 57.55 56.52 58.66 60.59 58.09 57.60 57.88 59.12 64.29 63.24 62.39 63.62 64.10 64.58 65.33 67.75 68.97 70.09 72.28 71.98 72.89 73.54 74.72 73.34 75.80 76.24 75.49 71.08 74.94 75.90 77.77 75.42 76.42 77.85 79.29 77.86 77.02
51.22 48.36 52.14 55.66 56.31 57.97 57.94 58.60 56.10 58.98 60.58 58.48 57.03 56.78 59.83 62.00 62.54 63.52 63.27 64.23 64.70 65.96 66.30 68.70 70.06 71.48 72.79 73.49 71.42 74.19 75.34 76.54 76.27 75.37 76.59 72.83 77.18 76.11 76.98 77.65 77.86 78.44 78.22 78.14
48.99 50.89 53.27 52.71 53.79 55.75 58.06 57.29 57.57 56.58 57.85 58.02 56.73 54.91 57.99 61.22 60.45 63.05 65.12 65.81 65.86 65.87 65.24 68.79 68.80 69.40 71.66 73.59 73.67 74.76 75.70 76.84 76.15 72.12 72.87 74.13 76.32 73.27 76.36 74.60 76.31 77.89 77.88 78.26
49.89 53.50 52.08 51.25 52.13 54.88 55.13 61.40 60.63 57.82 55.05 50.60 57.56 49.55 56.14 57.87 58.10 60.41 63.34 65.19 64.18 66.44 66.48 68.37 68.76 69.27 70.81 72.61 75.34 76.16 76.56 76.65 76.38 77.75 75.09 72.36 71.84 71.79 74.16 75.61 76.63 75.19 77.29 78.02
48.58 49.88 51.25 50.22 52.00 56.14 57.07 61.18 60.54 58.81 56.12 54.39 54.65 53.03 55.83 58.18 55.81 56.95 60.18 64.28 65.48 65.83 66.83 68.16 69.18 70.65 70.36 72.69 73.11 76.34 76.51 76.21 76.74 78.06 77.48 75.41 77.18 75.01 70.95 76.29 75.22 78.74 79.12 77.33
50.79 53.77 53.68 53.18 54.41 57.46 59.36 59.30 58.30 56.16 53.79 46.33 53.80 53.83 55.02 56.84 59.52 59.38 61.18 64.35 65.98 65.37 67.46 67.26 69.23 70.97 71.23 72.77 73.05 74.33 76.01 76.05 77.22 76.29 76.62 77.16 76.44 73.53 75.05 74.11 75.26 75.41 76.86 77.28
49.04 50.31 54.28 55.75 52.49 56.10 57.52 54.28 47.79 47.02 46.65 46.31 54.74 53.92 56.03 61.31 62.80 61.57 61.90 64.25 65.62 66.48 67.86 66.78 66.29 70.18 70.69 72.13 73.29 73.71 75.57 75.68 76.22 76.41 76.68 76.49 77.55 74.27 76.09 75.99 76.24 73.89 73.69 74.83
45.42 44.04 52.75 54.87 54.33 52.91 56.06 54.73 49.97 45.08 45.69 48.23 55.25 50.56 55.63 64.04 64.45 63.62 63.78 65.34 66.64 67.07 66.02 68.25 67.46 71.01 69.61 72.04 73.66 73.43 75.19 75.40 75.74 76.32 76.66 77.09 76.69 76.26 76.74 77.77 77.29 77.52 73.31 74.80
47.48 46.44 54.19 55.18 56.04 55.97 54.66 51.61 56.46 52.89 54.28 50.59 51.93 54.09 62.31 63.68 62.05 61.97 63.17 65.64 65.96 66.51 66.00 67.86 70.76 69.90 68.16 71.92 72.14 74.48 75.22 75.06 75.88 75.86 76.68 77.06 78.59 76.98 73.96 78.12 75.15 78.28 77.20 76.46
51.65 47.80 52.14 54.25 55.59 56.02 55.01 56.91 51.38 52.66 46.88 44.65 49.61 52.56 53.58 58.38 59.97 62.56 64.16 65.63 66.56 67.32 68.26 67.79 69.36 70.56 70.10 70.89 71.76 75.06 76.07 75.42 75.86 75.86 76.10 75.95 76.66 77.15 77.47 78.37 78.89 77.68 77.11 80.00
52.71 51.42 51.00 53.55 51.71 50.47 51.51 50.92 52.47 54.06 52.59 47.87 45.52 48.94 60.09 57.42 58.39 64.02 65.45 65.91 67.23 66.81 69.04 70.05 70.19 71.26 69.31 70.22 71.25 75.13 75.79 75.63 75.37 76.13 75.77 76.07 75.99 76.49 77.02 77.13 77.78 78.65 78.68 78.10
54.29 51.33 48.14 50.59 54.28 54.52 53.25 51.48 52.31 48.69 49.35 51.89 51.34 51.42 58.62 57.48 61.26 62.50 65.59 67.71 66.74 68.31 69.54 70.33 69.34 69.67 69.79 71.70 70.47 74.85 74.61 75.36 75.14 75.16 75.80 76.24 76.63 76.49 75.60 76.38 76.91 78.64 79.60 77.74
54.47 50.03 45.81 47.98 51.52 53.40 50.80 52.09 51.85 51.48 52.71 51.49 48.31 52.16 59.59 59.71 62.06 66.17 65.06 67.82 67.40 69.98 69.04 67.83 67.88 68.50 67.51 66.51 68.20 71.84 72.13 68.33 74.25 75.90 75.65 75.74 76.12 75.83 76.80 76.19 77.39 77.08 78.57 77.82
57.26 51.39 49.29 44.65 48.49 51.95 49.20 50.08 51.86 50.34 48.17 49.95 50.81 55.75 60.07 61.29 64.43 65.76 66.36 67.93 69.03 68.80 66.93 66.76 64.85 69.98 68.32 68.95 70.61 72.21 72.16 72.12 72.64 74.49 71.88 73.37 75.94 77.60 77.25 78.20 78.05 78.06 77.62 78.52
53.84 49.26 51.27 51.70 52.10 52.59 52.36 50.21 50.28 50.28 50.64 48.89 53.48 56.64 59.65 58.22 64.11 66.22 66.72 67.77 67.88 68.19 68.81 68.41 67.77 69.21 66.57 65.69 69.32 72.18 73.25 72.89 72.26 71.12 73.51 71.98 72.42 74.38 77.54 76.38 78.33 78.22 78.15 77.35
55.37 50.06 52.39 50.12 52.60 52.72 51.19 52.76 51.11 51.15 51.70 51.29 52.46 56.24 56.77 56.87 59.28 63.65 66.67 66.95 66.34 67.41 68.08 70.06 70.68 70.40 68.00 68.76 70.66 70.92 70.55 71.42 72.45 70.93 71.74 71.64 71.82 73.27 74.87 75.51 75.75 77.04 77.19 78.21
53.14 52.41 50.46 47.59 51.08 50.07 47.68 52.23 53.91 53.10 53.48 53.14 52.81 59.10 57.74 55.35 55.20 58.63 63.57 66.56 67.02 67.68 68.96 69.33 69.50 68.76 69.11 68.87 70.84 70.80 70.83 70.90 70.37 69.47 70.55 70.54 70.46 70.82 71.73 75.26 76.05 75.08 75.57 75.89
51.76 52.36 49.83 46.65 48.93 39.78 51.25 57.04 55.98 55.83 57.28 57.88 60.27 61.02 58.34 58.43 62.23 63.78 64.84 62.13 62.57 62.84 63.80 63.75 65.44 67.33 69.86 69.91 70.34 71.17 71.17 70.41 69.95 69.72 70.07 70.79 70.00 69.76 69.95 72.73 73.41 74.19 75.04 74.38
53.55 52.27 47.50 45.34 45.30 47.05 49.93 53.78 52.87 51.22 54.09 56.48 59.47 57.26 60.01 63.57 62.68 61.71 64.38 64.07 63.06 60.63 60.19 60.28 60.44 61.61 62.58 64.51 67.16 68.43 69.41 70.34 69.84 69.73 70.04 70.36 70.87 69.53 68.79 68.13 68.98 69.93 70.67 69.05
52.63 54.61 49.51 48.32 42.40 39.56 48.80 53.90 56.44 55.31 49.03 57.31 57.25 59.08 59.32 61.50 56.47 58.07 62.57 62.99 62.33 62.04 59.32 58.46 58.90 59.24 60.39 61.18 64.02 64.40 62.86 64.03 64.93 66.82 68.73 70.08 70.28 69.28 68.42 68.32 68.91 69.21 67.93 65.72
47.01 49.58 47.03 44.16 44.54 46.11 50.70 54.24 55.27 46.47 49.72 58.15 61.33 62.05 58.35 58.63 60.43 62.20 63.36 62.87 62.19 60.38 57.84 57.70 57.79 57.52 57.98 60.36 59.56 58.21 59.25 59.19 62.12 63.45 65.37 67.67 69.48 69.58 68.66 68.02 68.46 66.69 66.23 64.86
44.01 43.21 46.54 46.13 41.93 41.75 54.34 54.86 50.52 54.64 58.95 58.48 60.48 62.30 61.66 62.28 62.42 62.49 62.28 61.03 60.94 59.23 58.69 58.25 56.93 56.61 57.68 58.56 58.41 57.68 56.73 60.22 61.61 61.33 62.98 64.18 67.01 67.90 67.36 68.52 68.95 68.01 66.80 65.31
42.81 43.44 47.47 50.37 49.11 55.87 56.89 56.24 58.04 58.79 58.81 59.12 59.42 62.60 62.27 61.81 60.59 60.62 60.13 60.29 60.28 59.67 59.45 60.07 59.33 59.72 59.92 59.43 58.90 56.40 57.62 59.03 59.06 58.99 58.86 61.40 64.16 66.45 66.94 67.49 66.56 65.72 68.02 65.18
51.72 54.14 51.01 51.58 53.53 54.51 55.71 57.09 58.09 58.39 58.48 59.61 60.97 62.80 62.72 61.66 61.55 60.55 60.26 59.67 58.45 59.17 59.08 59.43 58.98 57.85 58.25 59.55 59.33 59.57 60.45 60.69 60.55 58.17 57.69 58.91 60.12 60.27 57.79 61.56 60.25 56.55 52.40 55.61
53.14 53.75 49.71 52.92 54.78 55.62 55.87 56.95 57.29 57.62 58.29 58.94 60.45 61.23 62.79 62.35 61.52 60.27 60.05 59.42 59.20 58.79 58.39 57.99 56.91 56.94 57.25 58.35 58.63 59.06 59.83 61.05 59.70 58.82 59.48 59.15 58.38 59.39 51.81 46.16 46.30 47.99 41.97 42.68
52.71 50.45 49.20 50.09 56.70 55.62 55.96 57.74 56.77 56.23 56.71 57.97 58.72 59.77 62.16 62.59 61.21 60.95 60.69 61.50 61.06 59.47 60.07 59.69 59.05 57.34 57.12 57.72 58.32 59.01 60.89 61.16 60.70 59.35 58.80 59.01 58.02 58.86 56.83 53.79 47.02 42.80 41.98 41.16
MSLP
1004.14 1003.63 1002.57 1002.02 1001.55 1001.39 1003.17 1003.80 1007.49 1009.71 1011.79 1013.02 1013.34 1013.34 1012.35 1010.77 1009.32 1008.96 1008.71 1008.93 1009.29 1009.69 1010.49 1011.25 1011.87 1012.99 1014.08 1015.04 1015.95 1016.62 1016.88 1017.22 1017.05 1017.24 1017.43 1017.51 1017.74 1018.01 1018.33 1018.28 1018.51 1018.77 1019.52 1019.48
1003.08 1002.36 1001.82 1001.47 1001.15 1001.32 1002.03 1004.06 1008.01 1010.24 1011.21 1013.17 1013.79 1013.70 1013.08 1011.78 1010.88 1009.76 1008.73 1008.89 1009.33 1009.68 1010.41 1011.05 1011.82 1012.71 1013.97 1014.99 1015.98 1016.90 1016.95 1017.09 1017.85 1018.95 1018.59 1017.65 1017.77 1018.17 1018.50 1018.29 1018.54 1018.54 1018.81 1019.10
1001.87 1001.16 1001.19 1000.82 1000.58 1000.55 1001.79 1002.89 1006.44 1008.77 1011.26 1012.70 1013.43 1013.79 1013.26 1011.89 1011.65 1010.43 1009.81 1009.34 1009.13 1009.94 1010.30 1011.23 1011.76 1012.35 1013.07 1014.61 1015.75 1016.38 1016.69 1016.90 1018.23 1018.81 1018.64 1018.16 1017.99 1018.66 1018.90 1018.65 1018.66 1018.64 1018.68 1018.73
1001.60 1000.45 1000.18 1000.49 1000.18 1000.08 1000.89 1002.80 1004.89 1007.86 1010.08 1011.33 1012.51 1012.40 1012.45 1012.24 1011.86 1011.10 1010.37 1010.10 1009.52 1010.82 1010.22 1010.73 1011.53 1012.25 1012.64 1013.80 1014.83 1015.69 1016.35 1016.82 1017.21 1017.43 1017.57 1018.77 1018.43 1018.97 1018.88 1018.80 1018.75 1018.77 1018.67 1018.92
1000.97 1000.52 999.91 999.95 999.85 1000.02 1000.91 1003.47 1005.50 1007.37 1009.07 1010.84 1011.21 1010.91 1010.57 1011.21 1011.38 1010.98 1010.49 1010.21 1010.35 1009.94 1010.04 1010.89 1011.25 1011.73 1012.36 1013.12 1013.96 1015.22 1016.05 1016.67 1017.04 1017.47 1017.52 1017.65 1017.72 1018.09 1018.48 1018.74 1018.86 1018.99 1018.89 1019.05
1000.85 1000.37 999.87 999.97 999.93 1000.15 1000.74 1003.39 1005.91 1008.08 1009.81 1010.92 1009.17 1009.25 1009.09 1009.13 1008.51 1009.34 1009.67 1009.73 1009.71 1009.92 1010.21 1010.49 1011.23 1011.23 1012.27 1012.43 1013.29 1014.39 1015.67 1016.58 1017.13 1017.52 1017.79 1017.93 1017.95 1018.51 1018.71 1018.64 1018.99 1019.09 1019.11 1019.01
1000.91 1000.13 1000.00 1000.09 1000.03 1000.05 1000.58 1001.62 1004.19 1007.19 1008.66 1007.65 1007.03 1007.39 1005.93 1006.06 1006.31 1006.44 1007.65 1008.67 1008.90 1009.07 1009.21 1010.14 1011.99 1011.17 1011.37 1011.93 1012.80 1014.05 1015.13 1016.14 1016.87 1017.20 1017.42 1017.79 1017.84 1018.47 1018.57 1018.52 1018.35 1018.59 1018.89 1018.85
1000.35 1000.16 999.98 999.95 999.65 999.33 999.98 1000.63 1001.45 1002.81 1004.22 1005.75 1006.44 1006.00 1002.79 1003.27 1004.72 1006.18 1007.36 1007.58 1007.97 1007.86 1008.47 1009.13 1010.29 1010.83 1011.22 1011.80 1012.51 1013.56 1014.65 1015.63 1016.37 1016.69 1017.17 1017.46 1017.55 1017.57 1017.65 1017.93 1018.25 1018.21 1018.25 1018.56
999.69 999.53 999.17 999.22 999.42 999.22 999.23 999.86 1000.26 1000.85 1001.17 1002.80 1005.14 1005.50 1003.56 1003.69 1005.15 1005.95 1006.33 1006.38 1006.45 1006.97 1007.69 1008.53 1008.88 1010.61 1010.79 1012.06 1012.53 1013.28 1014.29 1015.02 1015.74 1016.16 1016.71 1017.04 1017.29 1017.45 1017.64 1017.65 1017.98 1018.14 1018.08 1018.50
1000.62 1000.12 998.91 999.10 999.59 999.30 999.03 999.04 999.44 999.92 1001.13 1002.40 1003.87 1004.06 1004.84 1004.92 1004.81 1005.30 1005.18 1005.09 1005.29 1005.65 1006.91 1008.29 1009.23 1010.17 1010.84 1011.29 1012.34 1013.26 1014.26 1014.97 1015.54 1015.87 1016.46 1016.80 1016.92 1017.20 1017.44 1017.59 1017.84 1018.15 1018.11 1018.01
1001.04 1000.61 999.41 998.92 999.17 999.27 999.31 999.00 998.71 998.79 999.09 999.82 1003.17 1005.42 1006.19 1005.54 1006.50 1004.56 1003.97 1004.48 1004.86 1005.87 1006.51 1008.30 1009.55 1009.97 1010.62 1011.45 1012.97 1013.84 1014.39 1015.10 1015.50 1015.75 1016.15 1016.37 1016.63 1016.71 1016.98 1017.22 1017.66 1017.95 1018.14 1018.50
1001.63 1000.90 1000.28 999.90 999.21 999.57 999.19 999.07 998.92 998.49 998.76 999.85 1001.55 1004.99 1007.14 1005.68 1006.28 1004.86 1003.15 1003.88 1004.98 1005.89 1006.69 1008.68 1010.00 1010.38 1011.24 1012.56 1013.58 1014.05 1014.72 1015.27 1015.06 1015.03 1015.55 1015.65 1015.73 1016.09 1016.48 1016.74 1017.15 1017.55 1017.83 1018.23
1003.27 1001.93 1001.27 1000.30 999.87 999.25 999.36 999.04 998.91 998.75 998.72 999.09 1000.80 1003.88 1005.82 1005.34 1004.87 1002.97 1002.73 1003.53 1005.19 1006.18 1007.36 1008.68 1010.53 1011.13 1012.35 1012.73 1014.54 1015.06 1015.01 1015.98 1015.26 1014.73 1015.47 1016.42 1016.01 1015.48 1015.85 1016.35 1016.72 1017.19 1017.76 1018.30
1004.66 1003.23 1001.92 1001.64 1001.29 1000.85 999.42 999.38 998.79 998.80 998.78 999.15 1000.12 1002.53 1004.64 1005.06 1004.15 1003.35 1002.92 1004.07 1005.41 1006.63 1007.85 1008.92 1009.77 1011.80 1012.90 1013.17 1014.67 1015.79 1015.99 1016.18 1017.30 1016.06 1016.84 1016.37 1016.92 1016.79 1016.27 1016.35 1016.63 1016.99 1017.75 1018.27
1004.56 1003.85 1003.16 1002.66 1002.73 1001.63 1000.25 999.63 999.18 999.01 999.07 999.31 1000.62 1002.47 1005.10 1006.74 1005.85 1004.44 1004.36 1004.77 1005.92 1006.87 1008.03 1009.22 1010.90 1012.58 1012.91 1013.35 1015.89 1015.51 1015.67 1016.34 1016.33 1016.14 1017.05 1015.87 1017.35 1017.25 1016.88 1017.12 1016.84 1017.11 1017.50 1018.15
1004.76 1004.62 1004.24 1003.95 1003.75 1002.82 1001.54 1000.40 999.72 999.65 999.60 999.75 1000.72 1004.26 1006.55 1007.43 1005.73 1006.23 1006.46 1006.98 1007.55 1008.24 1008.97 1010.12 1011.34 1012.75 1013.49 1013.98 1015.21 1015.53 1016.27 1016.30 1016.50 1016.54 1016.67 1017.01 1016.86 1017.50 1017.11 1017.49 1017.46 1017.54 1017.88 1018.07
1005.75 1005.61 1006.05 1005.17 1004.95 1004.28 1002.89 1002.54 1001.17 1000.31 1000.44 1000.91 1002.07 1005.63 1007.17 1008.15 1007.65 1008.34 1010.08 1009.41 1009.70 1010.11 1010.31 1011.18 1012.15 1013.13 1013.79 1014.33 1015.21 1016.02 1016.27 1016.65 1016.89 1016.94 1016.96 1016.87 1017.03 1017.23 1017.67 1017.65 1017.71 1017.77 1018.20 1018.39
1006.43 1006.59 1007.67 1007.35 1007.11 1006.70 1005.24 1004.25 1003.47 1002.49 1003.89 1004.58 1005.31 1006.59 1008.16 1008.99 1009.99 1011.02 1011.93 1012.20 1011.77 1012.09 1013.04 1013.11 1013.41 1013.72 1013.81 1014.31 1015.03 1015.66 1016.08 1016.33 1016.69 1016.67 1016.52 1016.68 1016.95 1017.46 1017.94 1018.19 1018.29 1018.29 1018.55 1018.62
1006.54 1006.78 1007.69 1009.19 1008.69 1009.39 1007.80 1006.34 1005.96 1005.33 1005.97 1007.37 1008.10 1008.53 1008.86 1009.17 1009.69 1011.65 1011.85 1012.86 1012.96 1013.39 1014.19 1014.87 1015.27 1015.45 1015.43 1015.55 1015.81 1016.05 1016.20 1016.28 1016.39 1016.59 1016.59 1016.85 1017.24 1017.88 1018.70 1019.17 1018.97 1019.03 1019.12 1019.55
1007.14 1007.39 1008.09 1008.71 1009.12 1009.65 1009.75 1008.40 1007.74 1006.60 1007.49 1007.78 1008.83 1009.49 1010.17 1010.34 1011.11 1012.09 1012.70 1013.14 1013.97 1014.50 1015.07 1015.65 1016.39 1016.47 1016.60 1016.94 1017.00 1016.86 1017.00 1017.13 1017.25 1017.28 1017.26 1017.27 1017.83 1018.08 1018.87 1019.42 1019.61 1019.71 1019.91 1020.47
1009.43 1008.21 1008.19 1008.86 1009.65 1010.91 1010.68 1009.60 1008.33 1008.19 1009.28 1008.43 1008.33 1009.51 1011.66 1011.72 1011.92 1013.18 1013.57 1013.71 1014.51 1015.29 1015.82 1016.49 1016.85 1017.31 1017.60 1018.00 1017.83 1018.03 1018.05 1018.25 1018.32 1018.07 1017.85 1017.93 1018.28 1018.46 1019.17 1019.63 1019.96 1020.11 1020.25 1020.79
1012.50 1012.23 1009.15 1009.35 1010.15 1010.49 1009.64 1008.95 1008.96 1009.46 1008.51 1008.38 1008.48 1009.11 1010.40 1011.26 1012.43 1013.45 1013.95 1014.07 1014.92 1015.63 1016.22 1016.75 1017.16 1017.60 1018.19 1018.32 1018.44 1018.53 1018.63 1018.98 1018.79 1018.83 1018.73 1018.82 1018.60 1019.00 1019.45 1019.72 1019.81 1020.40 1020.66 1021.19
1011.76 1012.89 1011.91 1010.47 1010.21 1009.89 1009.71 1009.45 1009.39 1009.07 1008.87 1008.70 1009.18 1009.29 1009.86 1011.39 1013.30 1013.98 1014.17 1014.64 1015.15 1015.81 1016.06 1016.49 1017.03 1017.48 1018.03 1018.45 1018.84 1019.17 1019.45 1019.46 1019.61 1019.65 1019.78 1019.78 1019.66 1020.03 1020.00 1020.14 1020.37 1020.64 1020.73 1021.21
1009.03 1009.67 1010.04 1010.10 1010.10 1010.01 1009.94 1009.87 1009.93 1009.76 1009.68 1009.63 1009.65 1009.44 1010.17 1011.53 1012.93 1013.82 1014.54 1015.10 1015.64 1016.01 1016.35 1016.93 1017.38 1017.94 1018.53 1019.04 1019.41 1019.47 1019.63 1019.63 1019.90 1020.17 1020.41 1020.70 1020.65 1020.74 1020.94 1020.97 1021.35 1021.85 1022.32 1022.21
1008.73 1008.83 1009.11 1009.36 1009.77 1009.85 1009.88 1010.16 1010.27 1010.37 1010.30 1009.99 1009.92 1010.09 1010.44 1011.80 1013.29 1014.42 1014.99 1015.48 1015.99 1016.51 1016.89 1017.32 1017.77 1018.21 1018.61 1019.15 1019.50 1019.53 1019.67 1019.76 1020.13 1020.46 1021.00 1021.23 1021.09 1021.39 1022.17 1023.09 1023.47 1023.61 1024.53 1024.53
1008.02 1008.33 1008.55 1008.71 1008.83 1009.50 1010.11 1010.57 1010.74 1010.62 1010.66 1010.75 1010.64 1010.77 1011.49 1012.52 1013.54 1014.53 1015.14 1015.44 1015.80 1016.31 1016.61 1017.20 1017.93 1018.45 1018.95 1019.32 1019.70 1019.79 1019.90 1020.10 1020.35 1020.47 1020.66 1020.73 1020.98 1021.23 1021.81 1022.53 1024.02 1025.12 1025.12 1025.05
Wind_Speed
16 12 15 18 20 10 17 15 9 15 12 7 5 3 12 11 10 18 16 16 15 17 17 16 16 18 14 13 9 5 9 10 7 5 2 3 2 1 5 6 6 5 6 9
11 16 17 17 18 15 21 25 18 12 18 3 8 10 15 12 8 10 16 18 14 16 15 16 16 18 19 16 14 6 7 8 4 4 2 2 3 2 4 4 5 3 4 3
18 14 16 17 17 16 22 11 19 13 16 8 7 8 14 15 7 10 11 9 20 18 16 18 12 13 17 18 18 14 10 7 6 14 8 1 5 4 1 1 4 3 4 4
16 16 17 18 17 17 12 15 14 26 14 7 15 4 9 15 15 13 14 15 5 19 13 21 18 9 17 16 17 13 12 9 5 4 10 12 5 6 5 4 4 5 3 1
13 14 10 15 17 15 8 23 16 20 14 7 21 5 9 20 22 21 21 16 13 15 14 17 19 19 16 17 16 16 13 11 6 4 2 5 4 5 1 3 5 3 3 3
16 15 9 15 11 13 5 24 20 11 6 6 16 11 10 20 28 27 20 18 14 16 19 20 14 18 18 16 17 16 15 11 8 8 7 5 3 7 3 7 5 6 5 4
15 15 9 9 14 18 12 12 5 2 6 11 17 15 11 26 28 31 26 23 20 21 22 20 19 17 14 16 18 16 15 12 10 11 9 7 5 12 8 6 4 4 6 5
11 12 15 15 18 17 13 15 5 8 2 6 10 5 8 26 26 27 26 23 24 23 16 23 20 16 9 12 19 18 16 13 14 11 8 6 7 5 4 5 1 1 2 8
7 15 13 19 15 17 14 14 18 17 13 1 7 1 11 22 26 26 27 26 24 25 18 22 23 19 12 7 6 20 17 15 12 11 9 8 5 4 4 5 3 3 2 8
10 11 15 15 13 15 18 11 14 11 15 11 3 2 4 18 28 27 29 27 22 14 23 16 16 22 18 14 8 18 17 15 14 12 9 8 9 7 4 4 2 4 3 1
15 9 15 14 13 16 13 14 14 17 14 12 4 4 2 1 15 19 23 19 19 17 11 12 17 18 18 17 7 15 16 15 13 13 12 11 9 9 7 5 4 4 5 3
13 9 7 15 12 16 15 16 15 12 15 15 8 6 11 13 13 26 21 21 20 19 13 10 5 7 17 15 9 9 12 13 12 11 13 12 12 11 10 7 8 5 3 3
9 10 10 14 12 15 18 19 18 17 16 14 9 4 14 18 20 10 15 17 19 15 10 8 10 11 2 12 7 0 1 9 5 10 11 8 7 9 8 9 6 7 5 5
7 15 16 8 10 17 17 18 18 16 14 11 16 17 19 18 14 17 17 16 18 15 14 7 7 13 9 11 4 14 11 13 11 8 8 10 8 3 4 4 6 6 7 5
8 15 17 9 8 23 21 12 17 15 20 17 8 11 12 16 12 15 14 17 18 17 16 16 14 15 16 18 14 6 10 10 6 3 8 5 8 10 4 6 1 4 4 6
6 8 12 13 9 20 16 23 19 22 20 18 10 19 14 15 18 10 9 9 12 13 15 12 17 20 17 15 11 6 7 9 6 3 4 5 7 6 4 3 4 2 3 3
8 4 8 9 11 16 15 13 17 13 5 14 2 13 18 18 20 15 11 3 7 9 5 13 13 11 10 10 12 10 9 8 7 6 4 3 2 2 2 4 4 2 3 3
8 3 2 4 4 2 14 9 18 13 20 26 18 18 16 16 13 9 4 0 9 11 9 9 7 8 8 10 9 7 6 6 5 5 4 4 3 3 5 4 3 3 2 2
12 4 2 6 2 3 8 15 8 15 11 17 15 12 13 16 17 9 5 5 7 11 10 9 9 9 11 10 6 6 3 5 7 6 6 3 4 6 5 3 4 4 4 8
12 8 5 0 4 2 9 20 23 20 6 14 4 7 1 8 5 6 10 11 10 10 9 9 8 8 9 7 5 9 9 9 8 7 4 5 6 5 5 4 5 6 9 7
12 7 9 5 1 2 9 15 16 14 4 10 11 15 25 6 7 10 10 13 13 12 13 10 9 8 8 4 7 9 8 9 6 7 8 5 4 6 6 5 4 5 9 7
1 7 10 6 3 7 3 7 1 1 6 10 9 11 15 14 15 12 9 15 14 14 13 13 10 9 7 6 7 7 9 4 6 7 7 6 6 2 5 4 4 6 7 7
6 7 3 7 5 6 11 11 7 6 8 8 7 6 10 13 13 6 10 11 11 13 12 10 10 10 10 9 7 7 4 5 6 7 8 7 6 4 3 4 3 3 4 6
6 5 7 12 10 9 7 8 8 9 7 6 8 9 13 13 12 10 8 7 8 9 9 11 11 10 10 9 6 7 5 5 5 5 5 4 5 7 10 6 6 7 7 7
5 2 0 10 10 8 4 9 6 7 7 8 7 7 12 16 14 11 9 10 10 11 10 8 9 8 10 9 7 7 4 3 4 5 4 4 3 2 7 8 8 7 8 6
3 1 2 6 8 11 10 8 2 4 6 6 6 5 12 12 12 9 5 6 8 10 9 11 12 10 7 7 6 5 5 2 3 3 4 5 5 5 5 6 5 13 10 10
Wind_Direction
203 212 219 218 232 244 219 135 134 114 135 125 171 193 253 253 203 178 183 166 172 165 156 157 156 129 136 134 104 61 132 139 154 170 82 160 134 297 75 122 157 140 141 155
182 228 233 224 237 227 259 103 103 103 141 150 185 214 231 228 240 250 187 169 181 150 160 161 153 148 148 140 136 193 144 161 160 51 311 186 141 105 83 144 128 210 165 162
236 212 223 247 245 242 241 134 165 151 138 109 171 242 230 224 262 224 252 280 167 161 158 141 165 164 146 144 161 166 156 175 162 151 238 53 102 47 70 136 151 148 181 200
237 253 209 229 238 252 249 134 130 139 155 164 186 200 201 212 213 222 241 262 146 170 174 163 169 168 146 152 154 152 155 174 180 249 109 170 161 154 199 207 155 169 177 340
226 241 238 227 227 246 167 138 175 150 181 352 189 238 194 186 214 216 224 236 186 184 185 160 174 174 160 169 154 155 154 166 152 161 172 171 203 135 206 159 138 150 150 170
262 205 244 239 234 242 203 119 116 94 69 282 230 205 160 187 202 204 205 219 209 203 180 182 174 199 169 171 153 150 152 163 159 158 199 228 239 80 121 141 149 179 190 198
230 256 256 225 232 233 228 228 122 44 176 225 207 194 224 197 200 191 192 199 198 205 216 167 196 189 162 160 154 150 151 156 167 177 181 169 222 135 201 177 190 173 192 186
213 218 217 219 238 228 206 230 221 220 293 123 193 277 231 180 185 184 190 200 208 211 206 175 181 165 164 173 149 150 154 159 174 174 181 182 186 188 190 185 182 284 218 169
255 218 203 219 216 245 206 225 255 266 282 336 185 330 111 162 168 183 189 203 205 206 187 188 155 162 135 214 184 150 155 159 176 178 172 174 167 245 98 130 195 214 285 142
293 289 255 198 204 251 260 226 234 247 255 252 129 180 104 169 170 187 197 196 205 207 163 162 151 164 177 165 182 155 156 163 183 172 166 185 176 190 180 172 158 146 283 106
265 282 288 180 195 214 230 252 265 258 253 264 130 295 290 336 327 198 185 189 191 199 195 126 177 163 157 158 193 159 160 167 186 169 173 181 189 173 181 178 192 207 204 143
304 266 271 256 206 216 242 226 245 250 255 269 300 88 149 75 325 274 173 179 179 194 192 132 79 143 117 147 182 138 157 170 191 193 179 178 189 172 175 192 174 201 173 183
315 251 255 249 289 214 218 241 228 254 256 270 292 129 177 170 204 245 168 160 167 172 174 165 104 89 291 110 90 284 156 357 254 195 170 188 200 172 175 169 180 180 165 160
296 274 271 345 321 306 197 236 243 236 252 242 255 133 175 198 187 179 140 154 150 163 163 147 81 110 151 70 127 213 143 135 262 41 67 278 189 185 189 194 178 167 168 185
239 261 284 344 298 278 292 233 239 243 246 258 146 156 103 51 302 151 133 144 159 169 171 166 173 143 123 133 227 179 151 160 197 130 120 67 47 326 301 320 24 179 187 182
261 286 309 269 249 270 263 273 213 238 235 254 245 92 83 56 30 329 102 112 151 170 179 145 131 142 159 166 180 135 137 138 136 87 58 76 118 194 275 272 272 227 292 205
296 26 350 302 11 342 286 351 7 278 256 280 69 92 93 91 99 332 341 147 112 62 116 144 137 124 128 137 156 167 165 148 137 136 141 87 37 131 334 331 306 309 275 247
251 90 48 339 6 247 352 3 357 4 34 37 67 88 106 126 140 135 148 87 84 71 64 71 72 106 149 154 143 147 153 160 167 162 139 127 119 86 50 317 327 345 296 262
242 224 159 256 169 241 298 14 4 347 9 32 49 97 110 127 114 106 132 167 110 96 80 66 60 61 62 57 73 98 97 148 163 144 126 143 133 115 106 91 69 60 46 68
263 134 229 320 61 339 338 324 324 321 31 360 26 109 79 158 133 120 112 118 105 99 94 89 76 76 72 54 90 95 80 72 52 52 73 79 96 114 101 106 77 70 90 89
319 277 213 165 76 105 247 255 300 266 47 341 35 77 147 146 92 130 144 124 116 112 107 99 84 78 78 75 76 81 78 69 54 57 52 68 108 120 143 139 113 98 94 99
269 343 294 119 37 180 297 273 348 89 24 20 12 59 88 111 123 128 121 114 117 113 117 117 111 103 100 93 96 91 78 50 41 36 45 38 67 72 73 65 106 136 133 132
121 209 279 346 114 118 86 92 64 65 54 35 353 68 76 90 112 119 113 123 124 125 121 116 113 113 111 99 85 93 109 87 66 55 36 24 33 99 77 84 100 119 184 163
174 138 176 188 135 115 104 96 74 54 53 15 4 54 110 114 115 114 91 89 93 102 110 116 118 111 105 104 110 103 120 131 121 100 83 26 13 14 24 20 356 51 27 3
51 233 263 121 137 147 132 78 49 63 36 31 29 20 97 121 127 143 145 154 149 145 140 128 120 118 117 125 120 101 92 121 131 146 165 198 186 91 86 64 23 79 53 18
206 173 232 47 114 99 110 104 53 38 38 21 14 36 65 110 131 141 140 146 138 149 151 144 130 120 116 109 100 109 124 145 172 156 191 181 178 164 137 119 91 63 67 32